This demonstration page uses our WeatherBlox Daily Observations layout. Learn more.

Left ArrowRight Arrow

Hourly Observations for July 18, 2021

Temp ( °F °C ) Dew Point ( °F °C ) Humidity (%) Winds ( mph kmh ) Pressure ( in mb ) Visibility ( mi km ) Precip ( " mm )
12:56 am 00:56 Mostly Clear 70 21.1 69 20.6 97 97 ESE 5 7 30.13 1020 8 13 0.00 0.00
1:56 am 01:56 Partly Cloudy 69 20.6 68 20 96 96 SE 7 11 30.12 1020 10 16 0.00 0.00
2:56 am 02:56 Mostly Cloudy 69 20.6 68 20 96 96 SE 6 9 30.13 1020 9 14 0.00 0.00
3:28 am 03:28 Mostly Cloudy 70 21 68 20 94 94 SSE 8 13 30.10 1019 8 13 0.00 0.00
3:36 am 03:36 Mostly Cloudy 70 21 68 20 94 94 SE 6 9 30.10 1019 8 13 0.00 0.00
3:56 am 03:56 Cloudy 68 20 67 19.4 96 96 ESE 5 7 30.13 1020 7 11 0.00 0.00
4:15 am 04:15 Mostly Cloudy with Mist and Fog 68 20 66 19 94 94 SE 6 9 30.10 1019 6 10 0.00 0.00
4:56 am 04:56 Mostly Clear with Mist and Fog 67 19.4 66 18.9 97 97 ESE 5 7 30.11 1020 6 10 0.00 0.00
5:37 am 05:37 Mostly Cloudy with Mist and Fog 66 19 66 19 100 100 SE 6 9 30.11 1020 5 8 0.00 0.00
5:46 am 05:46 Mostly Cloudy with Mist and Fog 66 19 66 19 100 100 ESE 5 7 30.11 1020 5 8 0.00 0.00
5:56 am 05:56 Cloudy with Mist and Fog 67 19.4 67 19.4 100 100 ESE 5 7 30.13 1020 6 10 0.00 0.00
6:15 am 06:15 Cloudy with Mist and Fog 68 20 66 19 94 94 SE 8 13 30.10 1019 6 10 0.00 0.00
6:46 am 06:46 Cloudy with Mist and Fog 68 20 66 19 94 94 ESE 6 9 30.12 1020 4 6 0.00 0.00
6:56 am 06:56 Cloudy with Mist and Fog 68 20 67 19.4 96 96 ESE 6 9 30.14 1021 3 5 0.00 0.00
7:06 am 07:06 Cloudy with Mist and Fog 68 20 66 19 94 94 ESE 6 9 30.12 1020 2 3 0.00 0.00
7:15 am 07:15 Cloudy with Mist and Fog 68 20 66 19 94 94 ESE 5 7 30.12 1020 1 1 0.00 0.00
7:24 am 07:24 Cloudy with Nearby Thunderstorms 68 20 66 19 94 94 ESE 5 7 30.13 1020 1 1 0.00 0.00
7:40 am 07:40 Cloudy with Thunderstorms 68 20 66 19 94 94 NNW 13 20 30.17 1022 0 0 0.00 0.00
7:45 am 07:45 Cloudy with Thunderstorms 68 20 66 19 94 94 NNW 14 22 30.17 1022 1 1 0.00 0.00
7:47 am 07:47 Cloudy with Thunderstorms 68 20 66 19 94 94 N 14 22 30.17 1022 1 2 0.00 0.00
7:50 am 07:50 Cloudy with Thunderstorms 68 20 66 19 94 94 NNW 13 20 30.17 1022 3 5 0.01 0.25
7:56 am 07:56 Cloudy with Strong Thunderstorms 67 19.4 66 18.9 97 97 NW 15 24 30.21 1023 3 5 0.25 6.35
7:58 am 07:58 Cloudy with Strong Thunderstorms 66 19 66 19 100 100 WNW 13 20 30.19 1022 1 2 0.08 2.03
8:00 am 08:00 Cloudy with Thunderstorms 66 19 66 19 100 100 NW 15 24 30.19 1022 1 1 0.17 4.32
8:03 am 08:03 Cloudy with Thunderstorms 66 19 64 18 94 94 WNW 18 30 30.18 1022 1 1 0.32 8.13
8:06 am 08:06 Cloudy with Thunderstorms 66 19 64 18 94 94 WNW 17 28 30.18 1022 0 0 0.44 11.18
8:17 am 08:17 Cloudy with Thunderstorms 66 19 64 18 94 94 WSW 14 22 30.19 1022 1 1 0.00 0.00
8:23 am 08:23 Cloudy with Thunderstorms 64 18 64 18 100 100 W 8 13 30.20 1023 1 2 0.75 19.05
8:27 am 08:27 Cloudy with Thunderstorms 66 19 64 18 94 94 W 8 13 30.19 1022 1 2 0.78 19.81
8:36 am 08:36 Cloudy with Thunderstorms 66 19 64 18 94 94 W 3 6 30.18 1022 2 2 0.83 21.08
8:44 am 08:44 Cloudy with Thunderstorms 66 19 64 18 94 94 E 7 11 30.17 1022 3 5 0.84 21.34
8:54 am 08:54 Cloudy with Mist and Fog 66 19 64 18 94 94 SE 5 7 30.16 1021 3 4 0.85 21.59
8:56 am 08:56 Cloudy with Mist and Fog 66 18.9 65 18.3 96 96 SSE 5 7 30.19 1022 3 5 0.85 21.59
9:08 am 09:08 Cloudy with Mist and Fog 66 19 64 18 94 94 SE 9 15 30.15 1021 2 3 0.03 0.76
9:23 am 09:23 Cloudy with Mist and Fog 66 19 66 19 100 100 ESE 9 15 30.11 1020 2 2 0.08 2.03
9:33 am 09:33 Cloudy with Rain 64 18 64 18 100 100 ESE 15 24 30.11 1020 3 5 0.13 3.30
9:56 am 09:56 Mostly Cloudy with Light Rain 67 19.4 62 16.7 84 84 S 8 13 30.13 1020 10 16 0.16 4.06
10:56 am 10:56 Sunny 73 22.8 68 20 84 84 NE 12 19 30.16 1022 10 16 0.00 0.00
11:56 am 11:56 Sunny 74 23.3 68 20 82 82 SSE 7 11 30.17 1022 10 16 0.00 0.00
12:56 pm 12:56 Mostly Sunny 77 25 69 20.6 77 77 SE 6 9 30.16 1022 10 16 0.00 0.00
1:56 pm 13:56 Mostly Sunny 79 26.1 68 20 69 69 SE 13 20 30.16 1021 10 16 0.00 0.00
2:44 pm 14:44 Mostly Cloudy 79 26 70 21 74 74 ESE 10 17 30.09 1019 10 16 0.00 0.00
2:56 pm 14:56 Cloudy 79 26.1 68 20 69 69 SE 10 17 30.16 1021 10 16 0.00 0.00
3:56 pm 15:56 Partly Cloudy 80 26.7 67 19.4 64 64 SSE 9 15 30.15 1021 10 16 0.00 0.00
4:56 pm 16:56 Mostly Cloudy 79 26.1 68 20 69 69 ESE 10 17 30.15 1021 10 16 0.00 0.00
5:56 pm 17:56 Mostly Sunny 80 26.7 70 21.1 71 71 E 8 13 30.14 1021 10 16 0.00 0.00
6:56 pm 18:56 Sunny 79 26.1 68 20 69 69 SE 7 11 30.13 1020 10 16 0.00 0.00
7:56 pm 19:56 Sunny 76 24.4 69 20.6 79 79 ESE 6 9 30.14 1021 10 16 0.00 0.00
8:56 pm 20:56 Sunny 73 22.8 69 20.6 87 87 E 6 9 30.15 1021 10 16 0.00 0.00
9:56 pm 21:56 Clear 71 21.7 69 20.6 94 94 ESE 6 9 30.17 1022 10 16 0.00 0.00
10:56 pm 22:56 Clear 69 20.6 67 19.4 93 93 ESE 6 9 30.19 1022 10 16 0.00 0.00
11:56 pm 23:56 Clear 68 20 66 18.9 93 93 SE 7 11 30.20 1023 10 16 0.00 0.00

Powered by AerisWeather